Regional Weather Roundup
Issued by NWS

Home | Current Version | Previous Version | Graphics & Text | Print | Product List | Glossary On
Versions: 1 2 3 4 5 6 7 8 9 10 11 12 13 14 15 16 17 18 19 20 21 22 23 24 25 26 27 28 29 30 31 32 33 34 35 36 37 38 39 40 41 42 43 44 45 46 47 48 49 50
000
ASUS44 KMEG 151200
RWRTN
TENNESSEE HOURLY STATE WEATHER ROUNDUP
NATIONAL WEATHER SERVICE MEMPHIS TN
600 AM CST FRI DEC 15 2017

TNZ002-004-019-021-049-052-054-088>092-151300-
WEST TENNESSEE

CITY           SKY/WX    TMP DP  RH WIND       PRES   REMARKS
MEMPHIS INTL   CLOUDY    29  25  85 CALM      30.18R
NWS MEMPHIS      N/A     25 N/A N/A MISG        N/A
JACKSON        CLOUDY    31  26  82 W5        30.17R WCI  26
DYERSBURG      MOCLDY    31  26  82 CALM      30.18R
$$

TNZ008-025-027-028-033-062-065-066-151300-
NORTH MIDDLE TENNESSEE

CITY           SKY/WX    TMP DP  RH WIND       PRES   REMARKS
NASHVILLE      CLOUDY    33  20  58 NW9       30.11R WCI  25
CLARKSVILLE    CLOUDY    32  19  58 NW9       30.12R WCI  24
SMYRNA         CLOUDY    32  22  66 NW9       30.11R WCI  24
CROSSVILLE     CLOUDY    26  22  84 W7        30.00R WCI  18
$$

TNZ061-075-076-078-094-096-097-151300-
SOUTH MIDDLE TENNESSEE

CITY           SKY/WX    TMP DP  RH WIND       PRES   REMARKS
WINCHESTER     MOCLDY    27  21  80 CALM      30.08R
$$

TNZ017-018-042-046-047-151300-
NORTHEAST TENNESSEE

CITY           SKY/WX    TMP DP  RH WIND       PRES   REMARKS
TRI CITIES     CLOUDY    21  20  96 CALM      29.98S
$$

TNZ012-013-036-069-073-074-151300-
CENTRAL EAST TENNESSEE

CITY           SKY/WX    TMP DP  RH WIND       PRES   REMARKS
KNOXVILLE      CLOUDY    29  28  96 CALM      30.01S
OAK RIDGE      CLOUDY    33  27  78 CALM      30.03R
$$

TNZ083-085-099-151300-
SOUTHEAST TENNESSEE

CITY           SKY/WX    TMP DP  RH WIND       PRES   REMARKS
CHATTANOOGA    MOCLDY    31  22  69 N3        30.06R
$$

SKY/WX REPORTED AS FAIR MEANS FEW OR NO CLOUDS BELOW
12 THOUSAND FEET.





USA.gov is the U.S. government's official web portal to all federal, state and local government web resources and services.